Location: Chippewa Lake
(41.0698°N, 81.9010°W)
Time: 01:19:16
(UTC+00:00)

Cosmos 2263 Rocket - Pass Details

Date: 09 May 2021
Orbit: 822 x 850 km, 71.0° (Epoch: 24 June)

Event Time Altitude Azimuth Distance (km) Brightness Sun altitude
Rises 09:20:19 0° 340° (NNW) 3,393 5.5 -9.9°
Reaches altitude 10° 09:22:49 10° 345° (NNW) 2,460 4.9 -9.5°
Maximum altitude 09:28:21 53° 62° (ENE) 1,028 3.2 -8.7°
Drops below altitude 10° 09:33:51 10° 139° (SE) 2,461 4.8 -7.8°
Sets 09:36:22 0° 144° (SE) 3,395 5.4 -7.4°
